Change the Weather History Date:

Monday, January 6, 2014

  Actual Average Record
Temperature  
Mean Temperature 80 °F -  
Max Temperature 84 °F 81 °F 84 °F (2014)
Min Temperature 75 °F 69 °F 42 °F (1998)
Cooling Degree Days 14    
Growing Degree Days 30 (Base 50)    
Moisture  
Dew Point 73 °F    
Average Humidity 78    
Maximum Humidity 89    
Minimum Humidity 66    
Precipitation  
Precipitation 0.00 in - - ()
Sea Level Pressure  
Sea Level Pressure 30.07 in    
Wind  
Wind Speed 9 mph (East)    
Max Wind Speed 16 mph    
Max Gust Speed 26 mph    
Visibility 10 miles    
Events Rain    
Averages and records for this station are not official NWS values.
T = Trace of Precipitation, MM = Missing Value Source: NWS Daily Summary

Daily Weather History Graph

Daily Weather History Graph

Search for Another Location

Airport or City:

Trip Planner

Search our weather history database for the weather conditions in past years. The results will help you decide how hot, cold, wet, or windy it might be!

Date:

Astronomy

Jan. 06, 2014 Rise Set
Actual Time 6:55 AM AST 6:01 PM AST
Civil Twilight 6:32 AM AST 6:24 PM AST
Nautical Twilight 6:05 AM AST 6:51 PM AST
Astronomical Twilight 5:38 AM AST 7:18 PM AST
Moon 11:01 AM AST (1/6) 11:32 PM AST (1/6)
Length of Visible Light 11h 52m
Length of Day
11h 05m
Waxing Crescent, 34% of the Moon is Illuminated
Jan 6
Waxing Crescent
Jan 7
First Quarter
Jan 16
Full
Jan 24
Last Quarter
Jan 30
New

Hourly Weather History & Observations

Time (AST) Temp. Heat Index Dew Point Humidity Pressure Visibility Wind Dir Wind Speed Gust Speed Precip Events Conditions
12:16 AM 78.8 °F - 69.8 °F 74% 30.09 in 10.0 mi East 8.1 mph 16.1 mph N/A   Mostly Cloudy
12:53 AM 79.0 °F - 70.0 °F 74% 30.09 in 10.0 mi East 8.1 mph - N/A   Scattered Clouds
1:53 AM 78.1 °F - 70.0 °F 76% 30.08 in 10.0 mi ENE 10.4 mph - N/A   Partly Cloudy
2:53 AM 78.1 °F - 70.0 °F 76% 30.07 in 10.0 mi East 10.4 mph - N/A   Clear
3:53 AM 79.0 °F - 68.0 °F 69% 30.06 in 10.0 mi East 6.9 mph - N/A   Scattered Clouds
4:53 AM 79.0 °F - 69.1 °F 72% 30.05 in 10.0 mi East 8.1 mph - N/A   Mostly Cloudy
5:53 AM 75.9 °F - 70.0 °F 82% 30.05 in 10.0 mi East 3.5 mph - N/A   Mostly Cloudy
6:53 AM 79.0 °F - 73.0 °F 82% 30.08 in 10.0 mi East 6.9 mph 17.3 mph N/A   Overcast
7:53 AM 78.1 °F - 73.0 °F 84% 30.10 in 10.0 mi ENE 9.2 mph - N/A   Scattered Clouds
8:53 AM 81.0 °F 85.2 °F 72.0 °F 74% 30.11 in 10.0 mi East 11.5 mph - N/A   Clear
9:53 AM 81.0 °F 84.9 °F 71.1 °F 72% 30.12 in 10.0 mi East 8.1 mph - N/A   Scattered Clouds
10:19 AM 80.6 °F 84.6 °F 71.6 °F 74% 30.11 in 10.0 mi East 11.5 mph 19.6 mph N/A   Overcast
10:31 AM 82.4 °F 88.2 °F 73.4 °F 74% 30.11 in 10.0 mi East 12.7 mph 18.4 mph N/A   Mostly Cloudy
10:53 AM 82.9 °F 88.0 °F 72.0 °F 69% 30.11 in 10.0 mi East 12.7 mph - N/A   Mostly Cloudy
11:53 AM 80.1 °F 85.1 °F 75.0 °F 85% 30.09 in 7.0 mi ESE 10.4 mph 19.6 mph 0.00 in Rain Light Rain
12:24 PM 82.4 °F 88.2 °F 73.4 °F 74% 30.07 in 10.0 mi East 8.1 mph 18.4 mph 0.00 in   Mostly Cloudy
12:38 PM 84.2 °F 89.6 °F 71.6 °F 66% 30.06 in 10.0 mi ESE 16.1 mph 24.2 mph 0.00 in   Mostly Cloudy
12:53 PM 84.0 °F 90.2 °F 73.0 °F 69% 30.06 in 10.0 mi ESE 13.8 mph 21.9 mph 0.00 in   Scattered Clouds
1:53 PM 82.0 °F 88.6 °F 75.0 °F 79% 30.04 in 10.0 mi East 11.5 mph 17.3 mph 0.00 in   Partly Cloudy
2:53 PM 82.9 °F 89.4 °F 73.9 °F 74% 30.03 in 10.0 mi ESE 13.8 mph - N/A   Scattered Clouds
3:53 PM 82.9 °F 89.4 °F 73.9 °F 74% 30.02 in 10.0 mi ESE 10.4 mph - N/A   Partly Cloudy
4:53 PM 82.0 °F 87.9 °F 73.9 °F 76% 30.03 in 10.0 mi East 10.4 mph 16.1 mph N/A   Partly Cloudy
5:53 PM 80.1 °F 84.2 °F 73.0 °F 79% 30.03 in 10.0 mi East 9.2 mph - 0.00 in   Clear
6:53 PM 79.0 °F - 73.9 °F 84% 30.04 in 10.0 mi East 5.8 mph - N/A   Scattered Clouds
7:53 PM 80.1 °F 84.5 °F 73.9 °F 81% 30.06 in 10.0 mi ESE 6.9 mph - N/A   Mostly Cloudy
8:12 PM 78.8 °F - 73.4 °F 83% 30.07 in 5.0 mi East 11.5 mph 26.5 mph 0.00 in Rain Rain
8:49 PM 78.8 °F - 73.4 °F 83% 30.07 in 10.0 mi ESE 6.9 mph - 0.00 in   Mostly Cloudy
8:53 PM 79.0 °F - 73.9 °F 84% 30.07 in 10.0 mi ESE 8.1 mph - 0.00 in   Scattered Clouds
9:33 PM 78.8 °F - 75.2 °F 89% 30.07 in 5.0 mi ESE 10.4 mph - 0.00 in Rain Rain
9:53 PM 79.0 °F - 75.0 °F 88% 30.07 in 10.0 mi ESE 9.2 mph - 0.00 in   Overcast
10:12 PM 78.8 °F - 73.4 °F 83% 30.07 in 10.0 mi ESE 10.4 mph - N/A   Scattered Clouds
10:53 PM 79.0 °F - 73.9 °F 84% 30.06 in 10.0 mi ESE 11.5 mph 18.4 mph N/A   Mostly Cloudy
11:53 PM 80.1 °F 84.5 °F 73.9 °F 81% 30.06 in 10.0 mi ESE 9.2 mph - N/A   Overcast